Location: Nelson
(41.2830°S, 173.2830°E)
Time: 01:30:21
(UTC+12:00)

Cosmos 1943 Rocket - Visible Passes

Search period start: 25 September 2021 00:00
Search period end: 05 October 2021 01:00
Orbit: 811 x 845 km, 71.0° (Epoch: 23 September)

Date Brightness Start Highest point End Pass type
(mag) Time Alt. Az. Time Alt. Az. Time Alt. Az.
29 Sep 4.2 06:21:54 10° NNE 06:26:47 31° ENE 06:31:39 10° SE visible
30 Sep 4.4 06:02:58 10° NNE 06:07:37 27° ENE 06:12:16 10° SE visible
01 Oct 4.5 05:44:05 10° NNE 05:48:27 24° ENE 05:52:50 10° SE visible
02 Oct 4.6 05:25:15 10° NNE 05:29:19 21° E 05:33:22 10° SE visible
03 Oct 4.8 05:06:29 10° NE 05:10:10 18° E 05:13:50 10° ESE visible
04 Oct 4.8 04:47:49 10° NE 04:51:02 16° E 04:54:13 10° ESE visible
